Terminal Aerodrome Forecast
Issued by NWS Dallas/Fort Worth, TX

Home | Current Version | Previous Version | Text Only | Print | Product List | Glossary On
Versions: 1 2 3 4 5 6 7 8 9 10 11 12 13 14 15 16 17 18 19 20 21 22 23 24 25 26 27 28 29 30 31 32 33 34 35 36 37 38 39 40
000
FTUS44 KFWD 201500 AAA
TAFACT
TAF AMD
KACT 201511Z 2015/2112 04005KT P6SM OVC018
      TEMPO 2015/2017 5SM BR BKN009
     FM202100 10006KT P6SM BKN020
     FM210500 14004KT P6SM OVC010=

USA.gov is the U.S. government's official web portal to all federal, state and local government web resources and services.